Miscellaneous Local Product
Issued by NWS Hastings, NE

Home | Current Version | Previous Version | Text Only | Print | Product List | Glossary On
Versions: 1 2 3 4 5 6 7 8 9 10 11 12 13 14 15 16 17 18 19 20 21 22 23 24 25 26 27 28 29 30 31 32 33 34 35 36 37 38 39 40 41 42 43 44 45 46 47 48 49 50
000
AXUS43 KGID 261002
MISGRI

GID CWA HOURLY WEATHER ROUNDUP
NATIONAL WEATHER SERVICE HASTINGS NE
500 AM CDT TUE SEP 26 2017

NOTE: "FAIR" INDICATES FEW OR NO CLOUDS BELOW 12,000 FEET WITH NO
SIGNIFICANT WEATHER AND/OR OBSTRUCTIONS TO VISIBILITY.

...SOUTH CENTRAL NEBRASKA...

CITY           SKY/WX    TMP DP  RH WIND       PRES   REMARKS
GRAND ISLAND     N/A    N/A N/A N/A MISG      30.08R
HASTINGS       CLOUDY    49  47  93 N12       30.08S
KEARNEY        CLOUDY    49  47  93 N13       30.09S
ORD            CLOUDY    47  44  90 NW8       30.08R
YORK           CLOUDY    52  52 100 N7        30.06R
AURORA         CLOUDY    49  49  99 N12       30.07R
LEXINGTON      CLOUDY    47  45  91 NW6       30.11S
HOLDREGE       CLOUDY    47  45  95 NW6       30.09S
HEBRON         CLOUDY    53  52  97 NW7       30.06R

...NEBRASKA PANHANDLE...

CITY           SKY/WX    TMP DP  RH WIND       PRES   REMARKS
CHADRON        CLOUDY    46  40  79 S10       30.11F
ALLIANCE       MOCLDY    39  38  96 CALM      30.14S
SCOTTSBLUFF    CLEAR     39  36  89 E7        30.14S WCI  34
SIDNEY         CLEAR     34  33  96 NW8       30.14F WCI  27

...WESTERN AND NORTH CENTRAL NEBRASKA...

CITY           SKY/WX    TMP DP  RH WIND       PRES   REMARKS
VALENTINE      CLEAR     41  40  96 W5        30.12R
AINSWORTH      CLOUDY    47  46  96 NW3       30.12S
ONEILL         CLOUDY    48  48 100 NW10G16   30.09S
BROKEN BOW     CLOUDY    49  45  86 NW10      30.10R
IMPERIAL       CLOUDY    47  44  90 NW7       30.14S
NORTH PLATTE   CLOUDY    46  44  93 NW6       30.13F
MCCOOK         CLOUDY    48  47  96 N8        30.12S

...EASTERN NEBRASKA...

CITY           SKY/WX    TMP DP  RH WIND       PRES   REMARKS
NORFOLK        CLOUDY    50  50 100 NW15G22   30.04S
SO SIOUX CITY  CLOUDY    53  53 100 NW8       30.01S
TEKAMAH        CLOUDY    55  53  93 N7        30.00S
COLUMBUS       CLOUDY    52  50  93 NW8       30.06R
ALBION         CLOUDY    51  49  93 NW7       30.06S
OMAHA EPPLEY   CLOUDY    57  53  86 NW9       29.99S
OFFUTT AFB     CLOUDY    56  55  93 NW8       29.99S
MILLARD        CLOUDY    57  55  93 NW8       30.00S
LINCOLN        CLOUDY    55  52  89 NW15      30.03R
NEBRASKA CITY  CLOUDY    57  57 100 N6        29.99S
BEATRICE       CLOUDY    55  54  94 NW10      30.03R
FALLS CITY     CLOUDY    60  59  96 NW10      29.97R

...NORTHERN KANSAS...

CITY           SKY/WX    TMP DP  RH WIND       PRES   REMARKS
GOODLAND       CLOUDY    46  45  96 NW7       30.15R
HILL CITY      CLOUDY    51  49  92 N5        30.12R
NORTON         MOSUNNY   48  43  81 NW6       30.10
PHILLIPSBURG   PTCLDY    50  50 100 NW6       30.10S
SMITH CENTER   CLOUDY    50  48  93 NW10      30.09S
HAYS           CLOUDY    51  49  92 N13       30.10R
RUSSELL        CLOUDY    51  50  96 NW16      30.07S
CONCORDIA      CLOUDY    53  53 100 NW9       30.05R FOG
SALINA         CLOUDY    58  55  90 NW15      30.04R
TOPEKA         LGT RAIN  67  67 100 CALM      29.97R



USA.gov is the U.S. government's official web portal to all federal, state and local government web resources and services.